Hourly Data Report for October 05, 2017

All times are specified in Local Standard Time (LST). Add 1 hour to adjust for Daylight Saving Time where and when it is observed.

PARRY SOUND CCG
ONTARIO

45°20'39.000" N
80°02'39.000" W
176.30 m
6116257
71172
XPC

Download Data

Hourly Data (October 2017)
Hourly Data Report for October 5, 2017
Temp Definition
°C
Dew Point Temp Definition
°C
Rel Hum Definition
%
Wind Dir Definition
10's deg

Wind Spd Definition
km/h
Visibility Definition
km
Stn Press Definition
kPa
Hmdx Definition


Wind Chill Definition


Weather Definition


TIME
00:00 13.5 9.2 75 LegendMM LegendMM   99.77     LegendNANA
01:00 10.8 8.8 88 LegendMM LegendMM   99.78     LegendNANA
02:00 9.7 8.4 91 LegendMM LegendMM   99.76     LegendNANA
03:00 9.1 8.0 93 LegendMM LegendMM   99.74     LegendNANA
04:00 8.7 7.8 94 LegendMM LegendMM   99.75     LegendNANA
05:00 9.5 8.5 93 LegendMM LegendMM   99.74     LegendNANA
06:00 9.7 8.6 93 LegendMM LegendMM   99.71     LegendNANA
07:00 11.9 9.0 82 LegendMM LegendMM   99.70     LegendNANA
08:00 12.8 7.1 68 LegendMM LegendMM   99.69     LegendNANA
09:00 13.9 7.2 64 LegendMM LegendMM   99.68     LegendNANA
10:00 15.2 9.0 66 LegendMM LegendMM   99.61     LegendNANA
11:00 15.5 8.3 62 LegendMM LegendMM   99.61     LegendNANA
12:00 16.1 9.1 63 LegendMM LegendMM   99.59     LegendNANA
13:00 15.7 9.7 67 LegendMM LegendMM   99.52     LegendNANA
14:00 15.9 9.5 66 LegendMM LegendMM   99.49     LegendNANA
15:00 15.4 8.5 63 LegendMM LegendMM   99.50     LegendNANA
16:00 15.2 8.6 65 LegendMM LegendMM   99.50     LegendNANA
17:00 14.9 8.7 66 LegendMM LegendMM   99.48     LegendNANA
18:00 15.0 9.9 72 LegendMM LegendMM   99.51     LegendNANA
19:00 14.9 9.9 72 LegendMM LegendMM   99.54     LegendNANA
20:00 14.9 10.5 75 LegendMM LegendMM   99.53     LegendNANA
21:00 15.1 10.8 75 LegendMM LegendMM   99.52     LegendNANA
22:00 15.0 9.9 71 LegendMM LegendMM   99.52     LegendNANA
23:00 15.0 9.9 71 LegendMM LegendMM   99.51     LegendNANA

Notes on Data Quality.

Legend

  • E = Estimated
  • M = Missing
  • NA = Not Available
  • ‡ = Partner data that is not subject to review by the National Climate Archives
Date modified: